[[{"header":{"parameterUnit":"m.s-1","parameterCategory":1,"la1":30.2992,"la2":30.254,"lo1":-89.0895,"lo2":-89.0443,"dy":0.0025,"dx":0.0025,"nx":19,"ny":19,"refTime":"2026-04-29T03:00:00:Z","depth":0,"parameterNumber":2,"parameterNumberName":"U-component_of_WINDS"},"data":[0,0,0,-3.2615,-3.2617,-3.2691,-3.2691,-3.2814,-3.2816,0,0,0,0,0,0,0,0,0,0,0,-3.2608,-3.261,-3.2615,-3.2617,-3.2691,-3.2691,-3.2814,-3.2816,0,0,0,0,0,0,0,0,0,0,0,-3.2608,-3.2609,-3.2611,-3.2617,-3.2691,-3.2691,-3.2814,-3.2748,0,0,0,0,0,0,0,0,0,0,-3.2672,-3.268,-3.2609,-3.2611,-3.2618,-3.2691,-3.2691,-3.2745,-3.2752,-3.2793,0,-3.2831,0,-3.2825,-3.2826,-3.2826,0,0,0,-3.2606,-3.2674,-3.268,-3.2611,-3.2619,-3.2691,-3.2654,-3.2749,-3.2757,-3.2803,-3.2832,-3.2836,-3.2827,-3.2827,-3.2827,-3.3093,-3.3095,0,0,-3.2602,-3.263,-3.2674,-3.2686,-3.2674,-3.2652,-3.2657,-3.2753,-3.2788,-3.2832,-3.2838,-3.2829,-3.2828,-3.2829,-3.3092,-3.3094,0,0,0,-3.2598,-3.2628,-3.2631,-3.2682,-3.2693,-3.2655,-3.266,-3.2783,-3.2782,-3.2839,-3.2831,-3.2828,-3.283,-3.309,-3.3092,-3.3208,0,0,0,-3.2595,-3.2625,-3.263,-3.2648,-3.2692,-3.2739,-3.2688,-3.2775,-3.2785,-3.283,-3.2828,-3.2832,-3.3088,-3.3091,-3.3201,-3.3259,0,0,0,-3.2599,-3.2626,-3.2641,-3.2649,-3.2682,-3.2736,-3.274,-3.2777,-3.2781,-3.2826,-3.2832,-3.3086,-3.309,-3.3194,-3.3248,-3.334,0,0,0,-3.2611,-3.2743,-3.2644,-3.2787,-3.2681,-3.2806,-3.2739,-3.2831,-3.2883,-3.2829,-3.3088,-3.3092,-3.3192,-3.3241,-3.3333,-3.3424,-3.3464,0,0,-3.2793,-3.2766,-3.2848,-3.2762,-3.2912,-3.2793,-3.296,-3.2982,-3.296,-3.3051,-3.3057,-3.3203,-3.3247,-3.3339,-3.3672,-3.3703,0,0,0,-3.2916,-3.2976,-3.3009,-3.306,-3.3079,-3.3102,-3.3094,-3.3102,-3.3178,-3.3012,-3.3259,-3.3284,-3.3336,-3.3379,-3.3406,-3.3451,-3.3112,-3.3111,-3.3111,-3.3216,-3.3181,-3.3316,-3.3291,-3.3342,-3.3333,-3.3372,-3.3382,-3.3332,-3.3391,-3.3419,-3.3625,-3.3676,-3.3696,-3.3743,-3.3461,-3.3462,-3.3462,-3.3462,-3.3482,-3.3563,-3.3493,-3.36,-3.3563,-3.3653,-3.3651,-3.3612,-3.3693,-3.3601,-3.3645,-3.3551,-3.3732,-3.3771,-3.3471,-3.3469,-3.3468,-3.3468,-3.3467,-3.3678,-3.3711,-3.3718,-3.3789,-3.3849,-3.3818,-3.3899,-3.3862,-3.3828,-3.3872,-3.3899,-3.3897,-3.3893,-3.3886,-3.3887,-3.3888,-3.3889,-3.3889,-3.3889,-3.3879,-3.3883,-3.3955,-3.3987,-3.4016,-3.405,-3.4044,-3.4072,-3.4095,-3.4062,-3.4062,-3.4009,-3.3754,-3.3693,-3.3901,-3.3899,-3.3897,-3.3896,-3.3895,-3.4168,-3.4097,-3.4207,-3.4237,-3.4273,-3.4336,-3.4287,-3.4349,-3.4367,-3.4409,-3.4345,-3.4162,-3.4132,-3.411,-3.406,-3.435,-3.435,-3.435,-3.435,-3.4336,-3.4316,-3.4421,-3.4471,-3.4515,-3.4483,-3.4613,-3.461,-3.4597,-3.4607,-3.4559,-3.4487,-3.4467,-3.4449,-3.442,-3.4372,-3.4735,-3.4736,-3.4736,-3.4513,-3.4496,-3.4612,-3.4596,-3.4622,-3.4646,-3.4768,-3.483,-3.48,-3.4751,-3.4615,-3.4598,-3.4483,-3.4446,-3.4397,-3.4352,-3.4264,0,0]},{"header":{"parameterUnit":"m.s-1","parameterCategory":1,"la1":30.2992,"la2":30.254,"lo1":-89.0895,"lo2":-89.0443,"dy":0.0025,"dx":0.0025,"nx":19,"ny":19,"refTime":"2026-04-29T03:00:00:Z","depth":0,"parameterNumber":3,"parameterNumberName":"V-component_of_WINDS"},"data":[0,0,0,0.4716,0.4713,0.4557,0.4556,0.4374,0.4373,0,0,0,0,0,0,0,0,0,0,0,0.4776,0.4775,0.4717,0.4713,0.4557,0.4556,0.4374,0.4373,0,0,0,0,0,0,0,0,0,0,0,0.4776,0.4775,0.4775,0.4712,0.4557,0.4556,0.4375,0.4486,0,0,0,0,0,0,0,0,0,0,0.4634,0.4703,0.4776,0.4775,0.4712,0.4557,0.4556,0.4491,0.4479,0.4454,0,0.4437,0,0.4403,0.4362,0.4361,0,0,0,0.4702,0.4713,0.4659,0.4774,0.471,0.4557,0.4624,0.4484,0.447,0.4438,0.4434,0.4427,0.44,0.4361,0.436,0.426,0.426,0,0,0.4711,0.4754,0.4669,0.4651,0.4679,0.4629,0.4619,0.4475,0.4473,0.4434,0.4422,0.4397,0.436,0.4359,0.426,0.426,0,0,0,0.4743,0.4761,0.471,0.4659,0.463,0.4625,0.4614,0.4479,0.4459,0.442,0.4394,0.4359,0.4357,0.426,0.426,0.4306,0,0,0,0.4748,0.4779,0.4714,0.4739,0.4633,0.4553,0.4621,0.4469,0.4452,0.4395,0.4359,0.4355,0.426,0.426,0.4304,0.4319,0,0,0,0.4781,0.4783,0.4766,0.4742,0.4677,0.4554,0.4526,0.4465,0.4436,0.4361,0.4355,0.426,0.426,0.4303,0.4316,0.4306,0,0,0,0.4829,0.4806,0.4767,0.4731,0.4678,0.4585,0.4526,0.4454,0.4395,0.4358,0.426,0.426,0.4302,0.4315,0.4305,0.4304,0.4308,0,0,0.4823,0.4807,0.4782,0.4743,0.4669,0.4606,0.4537,0.4439,0.4391,0.4306,0.4303,0.4305,0.4316,0.4305,0.4318,0.4322,0,0,0,0.4795,0.4778,0.4748,0.4697,0.4625,0.4564,0.4474,0.4438,0.4365,0.4357,0.4297,0.4302,0.4294,0.4292,0.4295,0.4285,0.4261,0.4261,0.4261,0.4847,0.479,0.4745,0.467,0.4621,0.453,0.4484,0.442,0.4373,0.4361,0.4334,0.435,0.4349,0.4351,0.4341,0.433,0.4331,0.4331,0.4331,0.4833,0.4799,0.4743,0.468,0.462,0.4565,0.4477,0.4447,0.4386,0.4364,0.4354,0.4334,0.4357,0.4345,0.4334,0.4333,0.4333,0.4332,0.4332,0.4859,0.4834,0.4794,0.4715,0.466,0.4584,0.453,0.4476,0.4424,0.4414,0.438,0.4379,0.4371,0.4402,0.4402,0.4402,0.4403,0.4403,0.4403,0.4903,0.4856,0.4819,0.4744,0.4705,0.4646,0.4557,0.4516,0.4456,0.4421,0.442,0.4376,0.4371,0.437,0.4403,0.4403,0.4403,0.4403,0.4403,0.4907,0.4899,0.4841,0.4802,0.471,0.466,0.4593,0.4515,0.4473,0.4448,0.4407,0.4413,0.439,0.4387,0.4386,0.442,0.442,0.442,0.442,0.4929,0.4915,0.4844,0.4786,0.4723,0.4658,0.4593,0.4525,0.4451,0.4422,0.4409,0.4404,0.4404,0.4381,0.4378,0.4376,0.4407,0.4407,0.4407,0.4929,0.4906,0.4862,0.4794,0.4719,0.4656,0.4593,0.4527,0.4442,0.4406,0.4397,0.4398,0.4388,0.4389,0.435,0.4347,0.4342,0,0]}]]